Regional Weather Roundup
Issued by NWS

Home | Current Version | Previous Version | Text Only | Print | Product List | Glossary On
Versions: 1 2 3 4 5 6 7 8 9 10 11 12 13 14 15 16 17 18 19 20 21 22 23 24 25 26 27 28 29 30 31 32 33 34 35 36 37 38 39 40 41 42 43 44 45 46 47 48 49 50
000
ASUS42 KFFC 300403
RWRGA
WEATHER ROUNDUP FOR GEORGIA
NATIONAL WEATHER SERVICE PEACHTREE CITY GA
1200 AM EDT FRI SEP 30 2016

NOTE: "FAIR" INDICATES FEW OR NO CLOUDS BELOW 12,000 FEET WITH NO
SIGNIFICANT WEATHER AND/OR OBSTRUCTIONS TO VISIBILITY.

* = USE WITH CAUTION. THE STATIONS MARKED WITH AN ASTERISK MAY NOT
REPORT WEATHER SUCH AS PRECIPITATION, FOG, OR THUNDER AND ARE NOT
QUALITY CONTROLLED BY NWS.

THE REMARK "TC" DENOTES TEMPERATURE READING IN DEGREES CELSIUS.

GAZ001>058-300500-
NORTH GEORGIA

CITY           SKY/WX    TMP DP  RH WIND       PRES   REMARKS
ATLANTA        CLEAR     62  47  57 NW10      30.05F
ATHENS         CLEAR     59  49  69 NW3       30.02S
CHAMBLEE       CLEAR     61  45  55 NW6       30.05F
PEACHTREE CITY CLEAR     60  49  66 NW3       30.06F
ROME           CLEAR     57  47  69 NW5       30.07F
WEST ATLANTA   CLEAR     57  48  72 CALM      30.06F
GAINESVILLE    CLEAR     60  48  64 NW7       30.05F
CARTERSVILLE   CLEAR     57  47  69 CALM      30.07F


CITY           SKY/WX    TMP DP  RH WIND       PRES   REMARKS
DALTON*        CLEAR     54  50  87 NW5       30.08S
MARIETTA       CLEAR     62  46  56 NW8       30.05F
CANTON*        CLEAR     57  41  54 NW5       30.06F
BLAIRSVILLE*     N/A    N/A N/A N/A MISG      30.08F
$$

GAZ059>098-102>109-300500-
CENTRAL GEORGIA

CITY           SKY/WX    TMP DP  RH WIND       PRES   REMARKS
AUGUSTA-BUSH   CLEAR     67  51  56 N5        29.98R
AUGUSTA-DANIEL CLEAR     73  47  39 NW7       29.99S
COLUMBUS       CLEAR     66  44  45 N7        30.05S
MACON          CLEAR     67  47  48 NW8       30.02S
ROBINS AFB     CLEAR     62  51  68 NW9       30.02R


CITY           SKY/WX    TMP DP  RH WIND       PRES   REMARKS
LAGRANGE*      CLEAR     65  50  60 CALM      30.06F
MILLEDGEVILLE* CLEAR     66  52  59 W3        30.02S
$$

GAZ099>101-110>166-300500-
SOUTH GEORGIA

CITY           SKY/WX    TMP DP  RH WIND       PRES   REMARKS
SAVANNAH       PTCLDY    71  67  87 CALM      29.97S THUNDER
VALDOSTA       CLEAR     72  71  97 VRB3      30.01R
ALMA           CLEAR     70  64  81 VRB3      29.99R
ST SIMONS      PTCLDY    79  73  82 SW10      29.98S
FT STEWART     CLEAR     73  71  94 CALM      29.95S FOG
ALBANY         PTCLDY    71  51  49 CALM      30.05R
HUNTER AFB     CLEAR     75  74  97 SE6       29.94F THUNDER
MOODY AFB      CLEAR     74  69  83 NW5       30.00R
BRUNSWICK      CLEAR     79  75  89 SW8       29.99S


CITY           SKY/WX    TMP DP  RH WIND       PRES   REMARKS
BAINBRIDGE*    PTCLDY    72  55  56 CALM      30.04S
MOULTRIE*      CLEAR     72  61  68 NW3       30.03S
VIDALIA*       CLEAR     73  63  68 N7        29.99S
WAYCROSS*      CLEAR     74  72  91 SW6       29.99F
DOUGLAS*       MOCLDY    70  61  73 W3        30.02R
$$




USA.gov is the U.S. government's official web portal to all federal, state and local government web resources and services.